Location: Casteau
(50.5142°N, 4.0161°E)
Time: 04:47:50
(UTC+00:00)

Cosmos 1844 Rocket - Pass Details

Date: 18 September 2020
Orbit: 823 x 846 km, 71.0° (Epoch: 29 October)

Event Time Altitude Azimuth Distance (km) Brightness Sun altitude
Rises 21:22:59 0° 238° (WSW) 3,353 5.9 -30.6°
Reaches altitude 10° 21:25:37 10° 247° (WSW) 2,426 5.2 -30.9°
Maximum altitude 21:30:40 35° 313° (NW) 1,326 4.1 -31.4°
Drops below altitude 10° 21:35:46 10° 18° (NNE) 2,449 5.5 -31.9°
Sets 21:38:27 0° 28° (NNE) 3,390 6.2 -32.2°
